Location: Trenton (NJ)
(40.2170°N, 74.7430°W)
Time: 20:28:29
(UTC-04:00)

Envisat - Visible Passes

Search period start: 17 June 2018 00:00
Search period end: 27 June 2018 00:00
Orbit: 764 x 766 km, 98.2° (Epoch: 17 June)

Date Brightness Start Highest point End Pass type
(mag) Time Alt. Az. Time Alt. Az. Time Alt. Az.
17 Jun 5.6 21:33:30 10° SW 21:36:36 16° W 21:39:43 10° NW visible
18 Jun 4.6 20:54:56 10° SSW 20:59:35 36° W 21:04:15 10° NNW visible
20 Jun 5.4 21:21:36 10° SW 21:25:20 21° W 21:29:05 10° NW visible
22 Jun 5.9 21:49:43 10° WSW 21:51:11 11° W 21:52:38 10° WNW visible
23 Jun 5.1 21:09:53 10° SSW 21:14:05 26° W 21:18:18 10° NW visible
25 Jun 5.6 21:37:08 10° SW 21:39:54 15° W 21:42:40 10° WNW visible
